Hourly Data Report for February 22, 2021

TORONTO CITY
ONTARIO
Current Station Operator: ECCC - MSC

43°40'00.000" N
79°24'00.000" W
112.50 m
6158355
71508
XTO

Download Data

Hourly Data (February 2021)
Hourly Data Report for February 22, 2021
TIME
LST
Temp Definition
°C
Dew Point Definition
°C
Rel Hum Definition
%
Precip. Amount Definition
mm

Wind Dir Definition
10's deg

Wind Spd Definition
km/h
Visibility Definition
km
Stn Press Definition
kPa
Hmdx Definition


Wind Chill Definition


Weather Definition


00:00 -0.2 -6.3 63 0.0       100.58     LegendNANA
01:00 -0.2 -7.1 60 0.0       100.44     LegendNANA
02:00 0.2 -7.4 57 0.0       100.28     LegendNANA
03:00 0.6 -8.0 53 0.0       100.12     LegendNANA
04:00 0.4 -6.1 61 0.0       99.97     LegendNANA
05:00 0.1 -4.4 72 0.0       99.74     LegendNANA
06:00 0.0 -1.1 92 0.8       99.54     LegendNANA
07:00 0.1 -0.7 94 3.7       99.37     LegendNANA
08:00 0.3 -0.4 95 2.1       99.21     LegendNANA
09:00 0.8 0.0 95 0.8       99.06     LegendNANA
10:00 1.6 0.7 94 0.2       98.95     LegendNANA
11:00 2.2 1.1 92 0.1       98.87     LegendNANA
12:00 2.7 0.9 88 0.0       98.79     LegendNANA
13:00 2.7 0.6 86 0.0       98.69     LegendNANA
14:00 3.3 0.0 79 0.0       98.67     LegendNANA
15:00 3.3 -0.4 77 0.0       98.70     LegendNANA
16:00 3.1 -0.4 78 0.0       98.77     LegendNANA
17:00 3.2 -1.1 73 0.0       98.80     LegendNANA
18:00 2.8 -2.4 68 0.0       98.91     LegendNANA
19:00 2.4 -3.7 64 0.0       99.00     LegendNANA
20:00 2.6 -2.7 68 0.0       99.04     LegendNANA
21:00 2.4 -1.8 73 0.0       99.08     LegendNANA
22:00 2.2 -1.7 76 0.0       99.10     LegendNANA
23:00 1.5 -2.2 76 0.0       99.06     LegendNANA

Notes on Data Quality.

Legend

  • E = Estimated
  • M = Missing
  • NA = Not Available*
  • [empty] = Indicates an unobserved value
Date modified: